Location: Asheville, NC
(35.6000°N, 82.5500°W)
Time: 09:23:25
(UTC-04:00)

STRAND 1 - Pass Details

Date: 03 January 2018
Orbit: 769 x 781 km, 98.5° (Epoch: 17 July)

Event Time Altitude Azimuth Distance (km) Brightness Sun altitude
Rises 06:46:29 0° 150° (SSE) 3,226 ? -10.8°
Reaches altitude 10° 06:48:51 10° 145° (SE) 2,302 ? -10.3°
Maximum altitude 06:53:42 47° 72° (ENE) 1,016 ? -9.4°
Drops below altitude 10° 06:58:33 10° 0° (N) 2,313 ? -8.5°
Sets 07:00:56 0° 355° (N) 3,243 ? -8.0°
